Laconia, New Hampshire, United States (03246)
Lat: 43.53N, Lon: 71.47W
Wx Zone: NHZ009
Local Info
Past Weather Observations for Sunday, April 13, 2014

NOTE: This archive is for the closest National Weather Service station to Laconia. Information may differ from the station used for current weather conditions.

Time Weather Temperature Dewpoint Humidity Pressure Winds Precip Visibility
23:55
Overcast
37°F / 3°C 34°F / 1°C 87% 30.04 in
(1017 mb)
Calm - 10SM
23:35
Overcast
37°F / 3°C 34°F / 1°C 87% 30.04 in
(1017 mb)
ENE 3.5 mph
(ENE 6 kph)
- 10SM
23:15
Overcast
37°F / 3°C 34°F / 1°C 87% 30.04 in
(1017 mb)
NE 3.5 mph
(NE 6 kph)
- 10SM
22:55
Overcast
37°F / 3°C 36°F / 2°C 93% 30.04 in
(1017 mb)
NNE 4.6 mph
(NNE 7 kph)
- 10SM
22:35
Overcast
37°F / 3°C 34°F / 1°C 87% 30.04 in
(1017 mb)
NE 5.8 mph
(NE 9 kph)
- 10SM
22:15
Overcast
37°F / 3°C 36°F / 2°C 93% 30.06 in
(1018 mb)
ENE 6.9 mph
(ENE 11 kph)
- 10SM
21:55
Overcast
37°F / 3°C 36°F / 2°C 93% 30.06 in
(1018 mb)
NE 5.8 mph
(NE 9 kph)
- 10SM
21:35
Overcast
37°F / 3°C 36°F / 2°C 93% 30.06 in
(1018 mb)
NE 4.6 mph
(NE 7 kph)
- 10SM
21:15
Overcast
37°F / 3°C 36°F / 2°C 93% 30.06 in
(1018 mb)
NE 5.8 mph
(NE 9 kph)
- 10SM
20:55
Overcast
37°F / 3°C 36°F / 2°C 93% 30.06 in
(1018 mb)
ENE 8.1 mph
(ENE 13 kph)
- 10SM
20:35
Overcast
37°F / 3°C 36°F / 2°C 93% 30.06 in
(1018 mb)
E 11.5 mph
(E 19 kph)
- 10SM
20:15
Overcast
37°F / 3°C 36°F / 2°C 93% 30.09 in
(1019 mb)
ENE 10.4 mph
(ENE 17 kph)
- 8SM
19:55
Overcast
37°F / 3°C 36°F / 2°C 93% 30.09 in
(1019 mb)
ENE 11.5 mph
(ENE 19 kph)
- 10SM
19:35
Overcast
37°F / 3°C 34°F / 1°C 87% 30.06 in
(1018 mb)
ENE 10.4 mph
(ENE 17 kph)
- 10SM
19:15
Overcast
37°F / 3°C 34°F / 1°C 87% 30.09 in
(1019 mb)
ENE 11.5 mph
(ENE 19 kph)
- 10SM
18:55
Overcast
37°F / 3°C 34°F / 1°C 87% 30.06 in
(1018 mb)
ENE 12.7 mph
(ENE 20 kph)
- 10SM
18:35
Overcast
37°F / 3°C 34°F / 1°C 87% 30.09 in
(1019 mb)
ENE 12.7 mph
(ENE 20 kph)
- 10SM
18:15
Overcast
37°F / 3°C 36°F / 2°C 93% 30.09 in
(1019 mb)
ENE 10.4 mph
(ENE 17 kph)
- 10SM
17:55
Overcast
37°F / 3°C 34°F / 1°C 87% 30.09 in
(1019 mb)
NE 9.2 mph
(NE 15 kph)
- 10SM
17:35
Overcast
37°F / 3°C 34°F / 1°C 87% 30.09 in
(1019 mb)
ENE 10.4 mph
(ENE 17 kph)
- 10SM
17:15
Overcast
37°F / 3°C 34°F / 1°C 87% 30.09 in
(1019 mb)
ENE 11.5 mph
(ENE 19 kph)
- 10SM
16:55
Overcast
37°F / 3°C 34°F / 1°C 87% 30.09 in
(1019 mb)
NE 10.4 mph
(NE 17 kph)
- 10SM
16:35
Overcast
39°F / 4°C 36°F / 2°C 87% 30.12 in
(1020 mb)
NE 11.5 mph
(NE 19 kph)
- 10SM
16:15
Overcast
37°F / 3°C 36°F / 2°C 93% 30.12 in
(1020 mb)
ENE 12.7 mph
(ENE 20 kph)
- 10SM
15:55
Overcast
39°F / 4°C 34°F / 1°C 81% 30.12 in
(1020 mb)
NE 9.2 mph
(NE 15 kph)
- 10SM
15:35
Overcast
39°F / 4°C 36°F / 2°C 87% 30.12 in
(1020 mb)
ENE 10.4 mph
(ENE 17 kph)
- 10SM
15:15
Overcast
39°F / 4°C 36°F / 2°C 87% 30.15 in
(1021 mb)
ENE 10.4 mph
(ENE 17 kph)
- 10SM
14:55
Overcast
39°F / 4°C 36°F / 2°C 87% 30.15 in
(1021 mb)
ENE 13.8 mph
(ENE 22 kph)
- 10SM
14:35
Overcast
39°F / 4°C 36°F / 2°C 87% 30.15 in
(1021 mb)
NE 11.5 mph
(NE 19 kph)
- 10SM
14:15
Overcast
39°F / 4°C 36°F / 2°C 87% 30.15 in
(1021 mb)
NE 9.2 mph
(NE 15 kph)
- 10SM
13:55
Overcast
39°F / 4°C 34°F / 1°C 81% 30.18 in
(1022 mb)
ENE 10.4 mph
(ENE 17 kph)
- 10SM
13:35
Overcast
39°F / 4°C 36°F / 2°C 87% 30.21 in
(1023 mb)
NE 12.7 mph
(NE 20 kph)
- 10SM
13:15
Overcast
39°F / 4°C 36°F / 2°C 87% 30.21 in
(1023 mb)
ENE 10.4 mph
(ENE 17 kph)
- 10SM
12:55
Overcast
39°F / 4°C 36°F / 2°C 87% 30.21 in
(1023 mb)
ENE 15 mph
(ENE 24 kph)
- 10SM
12:35
Overcast
39°F / 4°C 36°F / 2°C 87% 30.21 in
(1023 mb)
ENE 13.8 mph
(ENE 22 kph)
- 10SM
12:15
Overcast
39°F / 4°C 34°F / 1°C 81% 30.21 in
(1023 mb)
ENE 12.7 mph
(ENE 20 kph)
- 10SM
11:55
Overcast
39°F / 4°C 34°F / 1°C 81% 30.21 in
(1023 mb)
ENE 11.5 mph
(ENE 19 kph)
- 10SM
11:35
Overcast
39°F / 4°C 34°F / 1°C 81% 30.21 in
(1023 mb)
ENE 11.5 mph
(ENE 19 kph)
- 10SM
11:15
Overcast
39°F / 4°C 34°F / 1°C 81% 30.24 in
(1024 mb)
ENE 16.1 mph
(ENE 26 kph)
- 10SM
10:55
Overcast
39°F / 4°C 34°F / 1°C 81% 30.24 in
(1024 mb)
ENE 13.8 mph
(ENE 22 kph)
- 10SM
10:35
Overcast
39°F / 4°C 34°F / 1°C 81% 30.24 in
(1024 mb)
ENE 12.7 mph
(ENE 20 kph)
- 10SM
10:15
Overcast
39°F / 4°C 34°F / 1°C 81% 30.24 in
(1024 mb)
ENE 9.2 mph
(ENE 15 kph)
- 10SM
09:55
Mostly Cloudy
39°F / 4°C 34°F / 1°C 81% 30.24 in
(1024 mb)
E 15 mph
(E 24 kph)
0.06 in
(1.52 mm)
9SM
09:35
Overcast
39°F / 4°C 36°F / 2°C 87% 30.27 in
(1025 mb)
ENE 10.4 mph
(ENE 17 kph)
0.05 in
(1.27 mm)
9SM
09:15
Overcast
39°F / 4°C 34°F / 1°C 81% 30.3 in
(1026 mb)
ENE 8.1 mph
(ENE 13 kph)
0.03 in
(0.76 mm)
9SM
08:55
Overcast
39°F / 4°C 34°F / 1°C 81% 30.3 in
(1026 mb)
NE 6.9 mph
(NE 11 kph)
0.13 in
(3.30 mm)
8SM
08:35
Overcast
39°F / 4°C 34°F / 1°C 81% 30.3 in
(1026 mb)
ENE 9.2 mph
(ENE 15 kph)
0.10 in
(2.54 mm)
9SM
08:15
Overcast
41°F / 5°C 32°F / 0°C 70% 30.3 in
(1026 mb)
NE 8.1 mph
(NE 13 kph)
0.05 in
(1.27 mm)
8SM
07:55
Overcast
43°F / 6°C 30°F / -1°C 61% 30.3 in
(1026 mb)
ENE 6.9 mph
(ENE 11 kph)
0.02 in
(0.51 mm)
9SM
07:35
Mostly Cloudy
45°F / 7°C 27°F / -3°C 49% 30.27 in
(1025 mb)
NE 13.8 mph
(NE 22 kph)
- 10SM
07:15
Overcast
46°F / 8°C 27°F / -3°C 46% 30.3 in
(1026 mb)
ENE 12.7 mph
(ENE 20 kph)
- 10SM
06:55
Mostly Cloudy
46°F / 8°C 27°F / -3°C 46% 30.27 in
(1025 mb)
NNE 5.8 mph
(NNE 9 kph)
- 10SM
06:35
Mostly Cloudy
46°F / 8°C 27°F / -3°C 46% 30.27 in
(1025 mb)
ENE 3.5 mph
(ENE 6 kph)
- 10SM
06:15
Mostly Cloudy
46°F / 8°C 27°F / -3°C 46% 30.24 in
(1024 mb)
ENE 10.4 mph
(ENE 17 kph)
- 10SM
05:55
Clear
46°F / 8°C 27°F / -3°C 46% 30.24 in
(1024 mb)
ENE 9.2 mph
(ENE 15 kph)
- 10SM
05:35
Clear
46°F / 8°C 27°F / -3°C 46% 30.24 in
(1024 mb)
N 5.8 mph
(N 9 kph)
- 10SM
05:15
Clear
46°F / 8°C 27°F / -3°C 46% 30.24 in
(1024 mb)
N 6.9 mph
(N 11 kph)
- 10SM
04:55
Partly Cloudy
45°F / 7°C 27°F / -3°C 49% 30.24 in
(1024 mb)
N 5.8 mph
(N 9 kph)
- 10SM
04:35
Partly Cloudy
45°F / 7°C 28°F / -2°C 53% 30.24 in
(1024 mb)
NE 6.9 mph
(NE 11 kph)
- 10SM
04:15
Partly Cloudy
41°F / 5°C 30°F / -1°C 66% 30.24 in
(1024 mb)
Calm - 10SM
03:55
Partly Cloudy
41°F / 5°C 30°F / -1°C 66% 30.24 in
(1024 mb)
Calm - 10SM
03:35
Partly Cloudy
41°F / 5°C 30°F / -1°C 66% 30.24 in
(1024 mb)
Calm - 10SM
03:15
Mostly Cloudy
39°F / 4°C 30°F / -1°C 70% 30.24 in
(1024 mb)
S 3.5 mph
(S 6 kph)
- 10SM
02:55
Mostly Cloudy
41°F / 5°C 30°F / -1°C 66% 30.24 in
(1024 mb)
Calm - 10SM
02:35
Partly Cloudy
41°F / 5°C 30°F / -1°C 66% 30.24 in
(1024 mb)
Calm - 10SM
02:15
Partly Cloudy
43°F / 6°C 30°F / -1°C 61% 30.24 in
(1024 mb)
Calm - 10SM
01:55
Partly Cloudy
43°F / 6°C 30°F / -1°C 61% 30.21 in
(1023 mb)
Calm - 10SM
01:35
Partly Cloudy
43°F / 6°C 30°F / -1°C 61% 30.21 in
(1023 mb)
Calm - 10SM
01:15
Clear
41°F / 5°C 30°F / -1°C 66% 30.21 in
(1023 mb)
Calm - 10SM
00:55
Clear
41°F / 5°C 30°F / -1°C 66% 30.21 in
(1023 mb)
E 4.6 mph
(E 7 kph)
- 10SM
00:35
Clear
41°F / 5°C 30°F / -1°C 66% 30.24 in
(1024 mb)
E 4.6 mph
(E 7 kph)
- 10SM
00:15
Partly Cloudy
43°F / 6°C 30°F / -1°C 61% 30.24 in
(1024 mb)
Calm - 10SM
Time Weather Temperature Dewpoint Humidity Pressure Winds Precip Visibility


Weather for websites

WeatherForYou.com, LLC is not responsible for any damages or problems caused by this service. Current weather conditions are obtained from the closest station including government and personal stations which may have varying degrees of accuracy. Weather forecasts are derived from the NOAA NDFD. Like all things, this site belongs to Jesus Christ... He just trusts me to maintain it. If you have any questions or comments email webmaster@weatherforyou.com

Copyright © 2014, WeatherForYou.com LLC. All rights reserved.